SCP
0 0 0 0 0 0 0 0 0 0 0 0 0 0 0 0 0 0 0 0 0 0 0 0 0 0 0 0 0 0 0 0 0 0 0 0 0 0 0 0 0 0 0
0 0 0 0 0 0 0 0 0 0 0 0 0 0 0 0 0 0 0 0 0 0 0 0 0 0 0 0 0 0 0 0 0 0 0 0 0 0 0 0 0 0 0
0 0 0 0 0 0 0 0 0 0 0 0 0 0 0 0 0 0 0 0 0 0 0 0 0 0 0 0 0 0 0 0 0 0 0 0 0 0 0 0 0 0 0
0 0 0 0 0 0 0 0 0 0 0 0 0 0 0 0 0 0 0 0 0 0 0 0 0 0 0 0 0 0 0 0 0 0 0 0 0 0 0 0 0 0 0
0 0 0 0 0 0 0 0 0 0 0 0 0 0 0 0 0 0 0 0 0 0 0 0 0 0 0 0 0 0 0 0 0 0 0 0 0 0 0 0 0 0 0
0 0 0 0 0 0 0 0 0 0 0 0 0 0 0 0 0 0 0 0 0 0 0 0 0 0 0 0 0 0 0 0 0 0 0 0 0 0 0 0 0 0 0
0 0 0 0 0 0 0 0 0 0 0 0 0 0 0 0 0 0 0 0 0 0 0 0 0 0 0 0 0 0 0 0 0 0 0 0 0 0 0 0 0 0 0
0 0 0 0 0 0 0 0 0 0 0 0 0 0 0 0 0 0 0 0 0 0 0 0 0 0 0 0 0 0 0 0 0 0 0 0 0 0 0 0 0 0 0
0 0 0 0 0 0 0 0 0 0 0 0 0 0 0 0 0 0 0 0 0 0 0 0 0 0 0 0 0 0 0 0 0 0 0 0 0 0 0 0 0 0 0
0 0 0 0 0 0 0 0 0 0 0 0 0 0 0 0 0 0 0 0 0 0 0 0 0 0 0 0 0 0 0 0 0 0 0 0 0 0 0 0 0 0 0
0 0 0 0 0 0 0 0 0 0 0 0 0 0 0 0 0 0 0 0 0 0 0 0 0 0 0 0 0 0 0 0 0 0 0 0 0 0 0 0 0 0 0
0 0 0 0 0 0 0 0 0 0 0 0 0 0 0 0 0 0 0 0 0 0 0 0 0 0 0 0 0 0 0 0 0 0 0 0 0 0 0 0 0 0 0
0 0 0 0 0 0 0 0 0 0 0 0 0 0 0 0 0 0 0 0 0 0 0 0 0 0 0 0 0 0 0 0 0 0 0 0 0 0 0 0 0 0 0
0 0 0 0 0 0 0 0 0 0 0 0 0 0 0 0 0 0 0 0 0 0 0 0 0 0 0 0 0 0 0 0 0 0 0 0 0 0 0 0 0 0 0
0 0 0 0 0 0 0 0 0 0 0 0 0 0 0 0 0 0 0 0 0 0 0 0 0 0 0 0 0 0 0 0 0 0 0 0 0 0 0 0 0 0 0
0 0 0 0 0 0 0 0 0 0 0 0 0 0 0 0 0 0 0 0 0 0 0 0 0 0 0 0 0 0 0 0 0 0 0 0 0 0 0 0 0 0 0
0 0 0 0 0 0 0 0 0 0 0 0 0 0 0 0 0 0 0 0 0 0 0 0 0 0 0 0 0 0 0 0 0 0 0 0 0 0 0 0 0 0 0
0 0 0 0 0 0 0 0 0 0 0 0 0 0 0 0 0 0 0 0 0 0 0 0 0 0 0 0 0 0 0 0 0 0 0 0 0 0 0 0 0 0 0
0 0 0 0 0 0 0 0 0 0 0 0 0 0 0 0 0 0 0 0 0 0 0 0 0 0 0 0 0 0 0 0 0 0 0 0 0 0 0 0 0 0 0
0 0 0 0 0 0 0 0 0 0 0 0 0 0 0 0 0 0 0 0 0 0 0 0 0 0 0 0 0 0 0 0 0 0 0 0 0 0 0 0 0 0 0
0 0 0 0 0 0 0 0 0 0 0 0 0 0 0 0 0 0 0 0 0 0 0 0 0 0 0 0 0 0 0 0 0 0 0 0 0 0 0 0 0 0 0
0 0 0 0 0 0 0 0 0 0 0 0 0 0 0 0 0 0 0 0 0 0 0 0 0 0 0 0 0 0 0 0 0 0 0 0 0 0 0 0 0 0 0
0 0 0 0 0 0 0 0 0 0 0 0 0 0 0 0 0 0 0 0 0 0 0 0 0 0 0 0 0 0 0 0 0 0 0 0 0 0 0 0 0 0 0
0 0 0 0 0 0 0 0 0 0 0 0 0 0 0 0 0 0 0 0 0 0 0 0 0 0 0 0 0 0 0 0 0 0 0 0 0 0 0 0 0 0 0
0 0 0 0 0 0 0 0 0 0 0 0 0 0 0 0 0 0 0 0 0 0 0 0 0 0 0 0 0 0 0 0 0 0 0 0 0 0 0 0 0 0 0
0 0 0 0 0 0 0 0 0 0 0 0 0 0 0 0 0 0 0 0 0 0 0 0 0 0 0 0 0 0 0 0 0 0 0 0 0 0 0 0 0 0 0
Wind_Speed
1 1 2 2 2 2 3 3 4 5 5 4 4 5 5 5 4 3 3 8 9 8 8 7 6 6 6 5 5 4 4 4 4 4 4 5 5 6 7 7 7 8 8
1 1 1 2 2 2 2 3 4 3 3 2 3 4 4 4 4 4 5 6 9 9 9 8 7 7 6 5 5 4 3 3 4 4 4 5 6 7 7 8 8 8 9
1 1 1 1 2 1 2 2 3 2 2 2 3 3 3 3 3 3 4 4 5 8 9 9 8 7 6 6 6 5 4 3 3 4 5 5 6 7 8 8 9 9 9
1 1 1 2 1 1 1 1 2 1 1 2 2 2 2 2 2 2 3 3 4 4 6 9 8 7 7 7 6 6 5 5 5 5 6 6 7 7 8 9 10 10 10
1 1 1 2 2 1 1 1 1 1 1 1 2 2 2 2 2 2 2 3 3 3 3 5 7 7 7 7 7 7 6 6 5 6 7 7 8 9 9 10 10 11 11
1 1 1 2 1 1 1 1 1 1 1 1 1 1 2 2 2 2 2 2 2 3 4 4 4 4 6 6 7 8 7 6 6 7 8 8 9 10 10 11 11 12 12
2 1 1 1 1 1 2 2 1 2 1 1 0 1 2 2 2 2 2 2 2 2 3 3 3 3 3 6 6 7 7 7 8 8 9 10 10 11 12 12 12 12 12
1 1 1 1 1 1 2 2 1 1 1 1 2 1 1 2 2 2 1 2 2 2 2 3 3 4 3 2 3 6 6 8 9 10 11 11 12 12 13 13 13 14 14
1 1 2 1 1 1 2 2 2 2 2 2 2 2 2 2 1 1 2 2 2 1 2 2 3 3 3 3 3 5 6 7 10 12 12 12 13 13 13 14 14 14 14
1 1 2 2 2 2 2 2 2 2 2 2 2 2 2 1 1 1 2 1 1 2 2 1 2 2 3 2 3 4 6 7 10 12 12 13 13 14 14 15 15 15 14
1 1 2 2 2 2 2 2 2 3 3 3 2 2 2 1 1 2 3 2 2 2 2 2 1 1 1 1 1 2 4 6 10 12 13 14 14 14 15 15 15 15 15
1 1 2 2 2 2 2 2 2 3 3 3 3 2 2 2 2 2 2 2 2 2 2 2 2 2 2 1 2 3 4 6 9 11 13 13 13 13 14 15 15 15 15
2 2 2 2 2 2 2 2 3 3 3 3 3 2 2 2 1 1 1 2 2 2 2 2 2 1 1 1 1 3 4 7 8 11 13 14 13 13 14 15 15 15 15
2 2 2 2 2 2 2 2 2 2 2 3 3 3 2 2 1 2 2 1 2 2 2 3 1 1 1 1 2 3 3 7 9 10 12 13 13 12 13 14 14 15 16
2 3 3 3 3 2 2 2 2 2 2 2 2 3 2 2 2 1 1 2 3 3 4 3 1 1 1 1 3 3 3 7 9 10 11 12 12 13 13 13 14 14 15
3 3 3 3 3 2 2 2 2 2 2 2 2 2 2 2 2 2 2 2 2 3 3 2 1 2 2 2 4 3 3 8 8 10 11 11 12 12 13 13 13 14 14
3 4 4 3 3 3 3 2 2 3 3 2 2 2 3 2 2 2 2 2 2 2 3 3 1 2 2 3 3 3 3 4 4 9 11 11 12 12 13 13 13 13 14
4 4 4 3 3 3 3 3 3 3 3 3 3 3 3 2 2 2 1 2 1 2 2 3 2 2 3 3 3 3 4 4 4 8 11 12 12 12 13 13 13 13 13
4 4 3 3 3 3 3 3 3 4 4 4 4 4 3 3 3 2 1 1 1 1 1 2 3 2 2 2 3 3 4 4 5 6 9 10 12 12 13 13 13 13 13
4 4 4 4 3 3 3 3 3 3 3 3 3 3 4 4 3 3 2 2 1 1 1 1 2 2 2 2 2 3 4 3 4 5 6 8 10 12 13 13 13 13 13
4 4 4 4 3 3 3 4 3 3 3 3 2 3 3 4 4 3 2 2 2 1 1 1 2 2 2 2 2 2 4 4 5 3 4 4 5 5 6 10 11 12 12
4 4 4 4 4 3 5 6 4 3 3 3 3 3 3 3 4 4 3 3 3 3 3 2 2 3 3 3 2 3 3 4 5 3 4 6 4 5 5 5 10 13 13
5 5 5 5 4 5 7 7 6 4 3 3 3 3 2 2 3 2 2 2 2 3 3 3 3 3 3 3 2 3 3 4 5 5 5 6 4 5 5 7 13 14 14
5 5 5 5 4 6 9 8 7 4 3 3 3 4 4 3 3 3 3 2 1 1 2 2 2 2 2 2 2 3 4 5 5 4 3 5 5 5 6 6 11 13 14
5 5 5 5 5 6 9 9 7 3 3 4 3 4 4 4 5 5 3 2 1 1 1 1 2 2 3 4 3 2 2 3 5 4 2 3 4 6 6 5 7 11 13
5 5 5 5 5 5 8 9 8 3 4 3 3 4 5 5 6 6 4 3 3 2 1 1 1 1 2 2 3 1 1 3 3 4 2 2 4 5 6 4 4 5 7
Wind_Direction
201 200 207 202 213 209 203 205 213 215 219 224 218 213 209 214 211 179 159 173 177 191 205 215 222 226 231 238 245 244 251 262 274 283 294 302 305 306 304 304 305 307 307
220 217 226 212 225 224 215 208 220 221 216 214 223 224 219 215 208 185 169 178 185 191 201 213 222 228 232 237 241 242 249 261 277 286 292 296 299 301 301 302 302 304 305
270 250 236 224 228 234 227 224 232 229 218 217 222 230 231 225 214 196 180 174 182 195 203 212 219 223 228 236 237 239 243 253 272 284 292 298 299 297 298 297 298 299 300
288 289 269 250 240 226 230 231 225 227 221 215 225 236 236 232 229 213 191 177 172 182 203 209 210 215 224 231 235 241 247 252 264 273 282 289 295 298 297 296 295 294 295
272 268 269 268 264 239 221 238 236 212 220 224 232 236 242 231 230 225 207 190 179 172 174 196 203 212 221 231 238 243 250 256 263 270 276 282 286 288 291 294 295 293 291
292 273 267 280 279 259 238 222 234 239 222 212 255 267 260 246 229 229 226 196 179 178 174 177 185 205 217 230 240 248 252 260 268 272 276 280 283 284 286 287 288 291 292
296 274 275 273 269 244 250 238 213 221 226 170 102 306 286 259 232 226 211 191 185 181 178 182 180 182 200 220 236 247 257 263 271 277 280 280 280 281 282 284 286 286 288
288 282 252 255 252 243 252 252 239 208 216 176 153 163 275 288 275 236 202 191 200 188 191 199 196 194 192 197 220 237 254 265 272 275 277 279 280 281 282 283 283 285 286
301 303 280 256 241 216 226 240 238 219 218 218 182 173 190 227 284 271 232 206 188 192 214 210 202 200 199 195 203 223 240 261 272 276 279 280 282 282 282 283 285 286 287
256 259 274 258 244 230 222 224 227 223 208 213 231 232 213 174 185 276 295 257 218 219 225 220 211 214 204 195 212 227 239 259 273 279 282 282 284 285 285 286 288 289 290
243 240 258 250 244 238 230 224 224 224 214 210 208 214 230 237 223 203 250 258 267 249 237 237 235 224 205 195 208 236 262 271 278 281 284 286 288 289 290 290 289 290 290
263 250 260 254 248 239 233 225 222 224 222 221 218 209 197 194 204 210 235 241 250 257 258 251 238 222 212 206 233 269 280 284 288 288 289 291 295 300 300 296 294 293 293
265 256 251 251 253 244 236 227 225 221 218 220 218 220 219 216 201 214 225 247 261 272 260 255 234 226 221 198 239 269 274 284 289 290 292 295 300 302 301 299 297 297 295
251 259 255 247 248 250 246 231 227 225 221 224 227 215 217 220 208 208 203 204 258 271 255 254 243 221 237 250 267 280 274 285 291 294 296 298 299 301 301 301 300 298 297
253 255 252 248 245 241 233 222 218 228 212 213 215 212 214 216 211 210 200 197 198 236 251 246 242 243 283 283 288 283 274 283 292 295 295 297 299 300 301 302 300 299 297
246 253 251 243 245 249 238 215 216 230 212 214 203 201 216 210 205 204 204 219 210 214 245 244 248 292 294 297 295 296 288 298 295 296 298 297 298 299 301 301 301 302 300
239 240 242 236 230 231 230 215 210 214 209 202 199 201 216 204 204 206 201 211 221 216 244 269 277 299 292 288 300 294 292 291 294 299 301 301 301 299 300 302 303 304 302
238 239 239 235 229 223 219 213 209 208 203 198 200 199 210 204 201 202 198 207 219 228 233 261 278 279 279 274 283 292 297 296 292 298 303 304 303 301 300 301 302 302 300
234 236 234 230 229 224 224 227 212 206 206 202 197 195 198 192 197 193 184 197 221 250 242 246 269 280 286 288 299 294 287 288 294 297 301 304 304 304 302 303 304 303 301
226 230 227 223 221 220 222 222 214 210 207 203 195 192 192 189 190 183 186 200 204 221 239 246 268 288 292 297 294 299 303 302 300 301 301 303 304 308 306 305 306 304 303
224 224 226 224 218 214 215 208 205 202 197 193 191 188 184 182 183 184 188 192 192 202 230 252 271 292 289 301 299 303 303 309 300 292 303 305 305 301 304 305 304 305 307
219 221 223 219 216 216 215 213 203 199 191 187 194 191 182 185 189 200 204 205 203 202 214 231 256 264 278 290 304 308 309 314 305 315 316 301 296 295 297 294 306 311 310
218 220 218 206 209 209 207 209 206 191 184 188 191 182 183 180 177 172 182 206 237 245 238 228 236 253 269 279 290 295 296 293 285 299 311 294 296 293 294 299 307 309 311
218 218 216 207 207 211 206 207 205 193 183 192 196 190 182 183 183 173 167 174 205 243 255 246 236 262 286 295 278 279 284 292 289 292 297 287 297 293 298 295 298 304 312
221 217 209 203 205 212 205 202 195 178 189 202 200 191 186 185 189 183 168 178 205 244 277 239 247 263 292 312 315 315 311 308 301 299 300 285 298 305 296 287 297 309 315
216 211 209 201 199 203 202 200 195 186 195 200 196 191 197 196 190 189 185 186 205 221 212 298 281 295 306 316 325 315 285 289 294 296 310 312 304 320 309 295 305 315 315